Wahpeton, MN

10:36 AM CST on December 06, 2019 (GMT -0600)
Stern

Weather History for KBWP - August, 2019

Change the Weather History Date:

Tuesday, August 6, 2019

  Actual Average (WUND) Record (WUND)
Temperature  
Mean Temperature 72 °F -  
Max Temperature 84 °F - - (-1)
Min Temperature 59 °F - - (-1)
Cooling Degree Days 6    
Growing Degree Days 22 (Base 50)    
Moisture  
Dew Point 59 °F    
Average Humidity 69    
Maximum Humidity 94    
Minimum Humidity 35    
Precipitation  
Precipitation 0.00 in - - ()
Sea Level Pressure  
Sea Level Pressure 29.85 in    
Wind  
Wind Speed 6 mph (WSW)    
Max Wind Speed 12 mph    
Max Gust Speed -    
Visibility 10 miles    
Events      
Averages and records for this station are not official NWS values.
T = Trace of Precipitation, MM = Missing Value Source: NWS Daily Summary

Daily Weather History Graph

Daily Weather History Graph

Search for Another Location

Airport or City:

Astronomy

Aug. 06, 2019 Rise Set
Actual Time 6:14 AM CDT 8:49 PM CDT
Civil Twilight 5:39 AM CDT 9:23 PM CDT
Nautical Twilight 4:56 AM CDT 10:06 PM CDT
Astronomical Twilight 4:07 AM CDT 10:55 PM CDT
Moon 1:02 PM CDT No Moon Set
Length of Visible Light 15h 43m
Length of Day
14h 35m
Waxing Crescent, 39% of the Moon is Illuminated
Aug 6
Waxing Crescent
Aug 7
First Quarter
Aug 15
Full
Aug 23
Last Quarter
Aug 30
New

Hourly Weather History & Observations

Time (CDT) Temp. Heat Index Dew Point Humidity Pressure Visibility Wind Dir Wind Speed Gust Speed Precip Events Conditions
12:15 AM 60.8 °F - 59.0 °F 94% 29.91 in 10.0 mi West 4.6 mph - N/A   Clear
12:35 AM 60.8 °F - 59.0 °F 94% 29.91 in 10.0 mi West 3.5 mph - N/A   Clear
12:55 AM 60.8 °F - 59.0 °F 94% 29.91 in 10.0 mi West 3.5 mph - N/A   Clear
1:15 AM 60.8 °F - 59.0 °F 94% 29.91 in 10.0 mi West 3.5 mph - N/A   Clear
1:35 AM 60.8 °F - 57.2 °F 88% 29.91 in 10.0 mi West 4.6 mph - N/A   Clear
1:55 AM 59.0 °F - 55.4 °F 88% 29.91 in 10.0 mi West 4.6 mph - N/A   Clear
2:15 AM 59.0 °F - 55.4 °F 88% 29.91 in 10.0 mi West 6.9 mph - N/A   Scattered Clouds
2:35 AM 59.0 °F - 55.4 °F 88% 29.90 in 10.0 mi West 5.8 mph - N/A   Clear
2:55 AM 59.0 °F - 55.4 °F 88% 29.90 in 10.0 mi West 3.5 mph - N/A   Clear
3:15 AM 59.0 °F - 55.4 °F 88% 29.91 in 10.0 mi West 4.6 mph - N/A   Clear
3:35 AM 59.0 °F - 55.4 °F 88% 29.90 in 10.0 mi West 6.9 mph - N/A   Clear
3:55 AM 59.0 °F - 55.4 °F 88% 29.91 in 10.0 mi West 4.6 mph - N/A   Clear
4:15 AM 59.0 °F - 55.4 °F 88% 29.91 in 10.0 mi West 4.6 mph - N/A   Clear
4:35 AM 59.0 °F - 55.4 °F 88% 29.90 in 10.0 mi West 4.6 mph - N/A   Mostly Cloudy
4:55 AM 59.0 °F - 55.4 °F 88% 29.90 in 10.0 mi West 4.6 mph - N/A   Scattered Clouds
5:15 AM 59.0 °F - 55.4 °F 88% 29.90 in 10.0 mi West 5.8 mph - N/A   Scattered Clouds
5:35 AM 59.0 °F - 55.4 °F 88% 29.90 in 10.0 mi WSW 4.6 mph - N/A   Scattered Clouds
5:55 AM 59.0 °F - 55.4 °F 88% 29.90 in 10.0 mi WSW 6.9 mph - N/A   Scattered Clouds
6:15 AM 59.0 °F - 55.4 °F 88% 29.90 in 10.0 mi West 3.5 mph - N/A   Clear
6:35 AM 59.0 °F - 55.4 °F 88% 29.91 in 10.0 mi West 3.5 mph - N/A   Clear
6:55 AM 59.0 °F - 55.4 °F 88% 29.90 in 10.0 mi WSW 5.8 mph - N/A   Clear
7:15 AM 60.8 °F - 57.2 °F 88% 29.91 in 10.0 mi WSW 5.8 mph - N/A   Clear
7:35 AM 60.8 °F - 59.0 °F 94% 29.91 in 10.0 mi West 3.5 mph - N/A   Clear
7:55 AM 62.6 °F - 59.0 °F 88% 29.91 in 10.0 mi West 4.6 mph - N/A   Clear
8:15 AM 64.4 °F - 60.8 °F 88% 29.91 in 10.0 mi West 5.8 mph - N/A   Clear
8:35 AM 64.4 °F - 59.0 °F 83% 29.91 in 10.0 mi West 5.8 mph - N/A   Clear
8:55 AM 68.0 °F - 60.8 °F 78% 29.91 in 10.0 mi West 6.9 mph - N/A   Clear
9:15 AM 68.0 °F - 60.8 °F 78% 29.91 in 10.0 mi West 6.9 mph - N/A   Clear
9:35 AM 69.8 °F - 59.0 °F 68% 29.91 in 10.0 mi West 8.1 mph - N/A   Clear
9:55 AM 71.6 °F - 59.0 °F 64% 29.90 in 10.0 mi West 6.9 mph - N/A   Clear
10:15 AM 71.6 °F - 60.8 °F 69% 29.90 in 10.0 mi West 5.8 mph - N/A   Clear
10:35 AM 73.4 °F - 60.8 °F 65% 29.90 in 10.0 mi WSW 5.8 mph - N/A   Clear
10:55 AM 75.2 °F - 60.8 °F 61% 29.89 in 10.0 mi WSW 5.8 mph - N/A   Clear
11:15 AM 77.0 °F - 60.8 °F 57% 29.89 in 10.0 mi West 6.9 mph - N/A   Clear
11:35 AM 78.8 °F - 60.8 °F 54% 29.89 in 10.0 mi West 10.4 mph - N/A   Clear
11:55 AM 78.8 °F - 59.0 °F 51% 29.89 in 10.0 mi West 11.5 mph - N/A   Clear
12:15 PM 78.8 °F - 59.0 °F 51% 29.88 in 10.0 mi West 9.2 mph - N/A   Clear
12:35 PM 80.6 °F 81.1 °F 59.0 °F 48% 29.88 in 10.0 mi West 8.1 mph - N/A   Scattered Clouds
12:55 PM 80.6 °F 81.1 °F 59.0 °F 48% 29.87 in 10.0 mi West 11.5 mph - N/A   Scattered Clouds
1:15 PM 80.6 °F 81.1 °F 59.0 °F 48% 29.87 in 10.0 mi West 6.9 mph - N/A   Clear
1:35 PM 80.6 °F 80.8 °F 57.2 °F 45% 29.86 in 10.0 mi West 6.9 mph - N/A   Clear
1:55 PM 82.4 °F 81.7 °F 55.4 °F 39% 29.86 in 10.0 mi West 9.2 mph - N/A   Clear
2:15 PM 82.4 °F 82.5 °F 59.0 °F 45% 29.85 in 10.0 mi West 9.2 mph - N/A   Clear
2:35 PM 82.4 °F 81.7 °F 55.4 °F 39% 29.84 in 10.0 mi West 8.1 mph - N/A   Clear
2:55 PM 82.4 °F 81.7 °F 55.4 °F 39% 29.84 in 10.0 mi West 8.1 mph - N/A   Clear
3:15 PM 84.2 °F 83.0 °F 55.4 °F 37% 29.84 in 10.0 mi WNW 9.2 mph - N/A   Clear
3:35 PM 82.4 °F 81.7 °F 55.4 °F 39% 29.83 in 10.0 mi WNW 10.4 mph - N/A   Clear
3:55 PM 84.2 °F 82.8 °F 53.6 °F 35% 29.83 in 10.0 mi West 3.5 mph - N/A   Clear
4:15 PM 84.2 °F 83.0 °F 55.4 °F 37% 29.82 in 10.0 mi WSW 3.5 mph - N/A   Clear
4:35 PM 84.2 °F 83.0 °F 55.4 °F 37% 29.81 in 10.0 mi WNW 5.8 mph - N/A   Clear
4:55 PM 84.2 °F 83.0 °F 55.4 °F 37% 29.79 in 10.0 mi WSW 5.8 mph - N/A   Clear
5:15 PM 84.2 °F 83.0 °F 55.4 °F 37% 29.80 in 10.0 mi WSW 6.9 mph - N/A   Clear
5:35 PM 82.4 °F 82.0 °F 57.2 °F 42% 29.80 in 10.0 mi SW 5.8 mph - N/A   Clear
6:15 PM 80.6 °F 81.5 °F 60.8 °F 51% 29.79 in 10.0 mi SW 4.6 mph - N/A   Clear
6:35 PM 80.6 °F 81.8 °F 62.6 °F 54% 29.78 in 10.0 mi SSW 4.6 mph - N/A   Clear
6:55 PM 80.6 °F 81.8 °F 62.6 °F 54% 29.78 in 10.0 mi SSW 3.5 mph - N/A   Clear
7:15 PM 78.8 °F - 64.4 °F 61% 29.78 in 10.0 mi SSW 5.8 mph - N/A   Clear
7:35 PM 78.8 °F - 64.4 °F 61% 29.77 in 10.0 mi South 5.8 mph - N/A   Clear
7:55 PM 77.0 °F - 66.2 °F 69% 29.77 in 10.0 mi South 6.9 mph - N/A   Clear
8:15 PM 77.0 °F - 66.2 °F 69% 29.76 in 10.0 mi South 6.9 mph - N/A   Clear
8:35 PM 75.2 °F - 66.2 °F 73% 29.76 in 10.0 mi South 6.9 mph - N/A   Clear
8:55 PM 73.4 °F - 66.2 °F 78% 29.75 in 10.0 mi South 8.1 mph - N/A   Clear
9:15 PM 73.4 °F - 66.2 °F 78% 29.74 in 10.0 mi South 9.2 mph - N/A   Clear
9:35 PM 73.4 °F - 64.4 °F 73% 29.76 in 10.0 mi South 5.8 mph - N/A   Clear
9:55 PM 71.6 °F - 64.4 °F 78% 29.76 in 10.0 mi South 4.6 mph - N/A   Clear
10:15 PM 71.6 °F - 64.4 °F 78% 29.76 in 10.0 mi SSW 5.8 mph - N/A   Clear
10:35 PM 71.6 °F - 62.6 °F 73% 29.77 in 10.0 mi SW 5.8 mph - N/A   Clear
10:55 PM 69.8 °F - 62.6 °F 78% 29.76 in 10.0 mi SSW 4.6 mph - N/A   Clear
11:15 PM 69.8 °F - 62.6 °F 78% 29.76 in 10.0 mi SW 4.6 mph - N/A   Clear
11:35 PM 69.8 °F - 60.8 °F 73% 29.76 in 10.0 mi WSW 5.8 mph - N/A   Clear
11:55 PM 68.0 °F - 59.0 °F 73% 29.76 in 10.0 mi West 8.1 mph - N/A   Clear